Temperature
20 20 19 20 19 19 19 20 20 20 20 19 19 19 19 19 19 19 19 19 19 19 19 19 19 19 19 20 20 20 20 19 19 19 19 19 19 19 19 19 19 19 19
20 20 19 20 20 20 20 20 20 20 20 20 19 19 19 19 19 19 19 19 19 19 19 19 19 19 19 20 20 20 20 20 19 19 19 19 19 19 19 19 19 19 19
21 20 20 20 20 20 20 20 20 20 20 20 19 19 19 19 19 19 19 19 19 19 19 19 19 19 19 19 20 20 20 20 20 19 19 19 19 19 19 19 19 19 19
21 20 20 20 20 20 20 20 20 20 20 19 19 19 19 20 19 19 19 19 19 19 19 19 19 19 19 19 19 19 19 19 19 19 19 19 19 19 18 19 19 19 19
21 21 21 21 21 21 20 20 20 20 20 20 19 19 20 19 19 19 19 19 19 19 19 19 19 19 19 19 19 19 19 19 19 19 19 19 18 18 18 18 18 18 18
21 21 21 21 21 21 21 20 20 20 20 20 20 20 20 20 19 19 19 19 19 19 19 19 19 19 19 19 19 19 18 18 18 18 18 18 18 18 18 17 17 17 17
21 21 21 21 21 21 21 21 20 20 20 20 20 20 20 20 20 19 19 19 19 19 19 19 19 18 18 18 18 18 18 18 18 18 18 17 17 17 17 17 17 17 17
21 21 21 21 21 21 21 21 20 20 20 20 19 19 20 20 19 19 19 19 19 19 19 19 19 18 18 18 18 18 18 18 18 18 18 17 17 17 17 17 17 17 17
21 21 20 20 20 21 21 20 20 20 20 20 19 19 19 19 19 19 19 18 18 18 18 18 18 18 18 18 18 18 18 18 17 18 17 17 17 17 17 17 17 17 17
20 20 20 20 20 20 20 20 20 20 19 19 19 19 19 19 19 19 19 18 18 18 18 18 18 18 18 18 18 18 18 18 18 18 17 17 17 17 17 17 17 17 17
20 20 20 20 20 20 20 20 19 19 19 19 19 19 19 19 19 19 19 18 18 18 18 18 18 18 18 18 18 18 18 18 18 18 18 18 17 17 17 17 17 17 17
20 20 20 20 20 20 20 19 19 19 19 19 19 19 19 19 18 18 18 18 18 18 18 18 18 18 18 18 18 18 18 18 18 18 18 18 17 17 17 17 17 17 17
21 20 20 20 20 20 20 19 19 19 19 19 19 19 19 18 18 18 18 18 18 18 18 18 17 18 18 18 18 18 18 18 18 18 18 18 17 17 17 17 17 17 17
21 21 21 20 20 20 20 20 19 19 19 19 19 19 18 18 18 18 18 18 17 18 18 18 18 18 18 18 18 18 18 18 18 18 18 17 17 17 17 17 17 17 17
21 21 21 20 20 20 20 19 19 19 19 19 19 18 18 18 18 18 18 18 18 18 18 18 18 18 18 18 18 18 18 18 18 18 18 18 17 17 17 17 17 17 17
21 21 21 20 20 20 20 19 19 19 19 18 18 18 18 18 18 18 18 18 18 18 18 18 18 18 18 18 18 18 18 18 18 18 18 18 18 17 17 17 17 17 17
22 21 21 21 20 20 20 20 19 19 18 18 18 18 18 18 18 18 18 18 18 17 17 17 18 18 18 18 18 18 18 18 18 18 18 18 18 18 17 17 18 18 17
22 22 21 21 20 20 20 19 19 18 18 18 18 18 18 18 18 18 18 18 18 18 18 18 18 17 18 18 18 18 18 18 18 18 18 18 18 18 18 18 18 18 17
23 22 21 21 21 20 19 19 19 18 18 18 18 17 17 17 18 18 18 18 18 18 18 18 18 17 18 18 17 18 18 18 19 19 19 19 18 18 18 18 18 18 17
22 22 21 21 20 20 19 19 18 18 18 17 17 17 17 17 18 18 18 18 18 18 18 18 17 17 17 17 17 17 17 18 18 19 19 19 19 18 18 18 18 18 18
21 21 21 21 20 20 19 18 18 18 18 17 17 17 17 18 18 18 18 18 18 18 17 17 17 16 16 17 16 17 17 17 18 18 19 19 19 19 19 18 18 18 18
21 21 21 20 20 19 19 19 18 18 17 17 17 17 18 18 18 18 18 18 18 17 17 17 16 16 16 16 16 16 16 16 18 18 19 19 19 19 19 19 19 18 18
20 20 20 20 20 19 19 18 18 18 18 17 17 18 18 18 18 18 18 18 17 17 17 17 16 16 16 15 15 15 15 15 16 17 18 19 19 19 19 19 19 18 18
20 20 20 20 19 19 18 18 18 18 18 18 17 17 17 17 17 17 17 17 17 17 16 16 16 15 15 15 15 15 15 15 15 16 17 18 18 19 19 19 18 18 18
19 19 20 19 19 18 17 17 17 17 17 17 17 16 17 17 17 17 17 17 17 16 16 15 15 15 14 14 14 14 14 15 15 15 15 17 17 18 18 18 18 18 18
18 18 19 18 18 18 17 16 16 16 16 16 16 16 16 16 16 17 16 16 16 15 15 15 15 14 14 14 14 14 14 14 14 15 15 16 16 17 17 17 17 17 17
Wind_Speed
7 12 21 20 18 17 16 16 16 16 16 16 16 15 14 13 13 12 12 11 10 9 7 8 8 9 9 10 10 10 9 9 9 9 9 9 9 8 9 9 10 9 11
12 16 21 21 20 18 17 16 16 15 15 14 14 14 13 13 12 12 11 11 10 8 7 6 7 8 8 9 9 9 8 8 7 7 7 6 6 6 7 7 8 7 9
14 17 20 21 20 19 17 16 16 15 14 14 14 13 13 13 12 11 10 10 9 8 7 6 5 6 7 8 8 8 7 7 6 6 5 3 2 4 5 6 7 8 8
14 17 19 21 20 18 17 16 15 15 14 13 13 12 12 12 12 11 10 9 8 8 7 6 5 5 5 6 7 6 6 6 5 5 4 3 2 3 5 7 8 8 8
11 15 19 21 20 19 17 16 15 14 13 12 11 11 10 9 9 9 8 7 6 6 5 5 4 4 5 5 6 6 6 5 5 4 4 4 4 4 6 9 9 9 9
10 14 18 21 20 19 18 17 15 14 13 11 10 9 9 8 7 7 6 5 5 4 4 4 4 4 4 4 5 5 6 6 6 5 5 5 6 9 11 12 12 12 11
10 12 16 21 20 19 19 17 16 14 13 11 10 9 8 8 7 6 6 5 5 5 4 4 4 4 5 6 6 7 7 7 7 6 6 6 8 11 13 15 14 14 13
11 10 14 21 20 19 18 18 16 15 13 11 10 9 9 8 8 7 7 6 6 5 5 5 5 6 7 7 8 8 8 8 8 6 6 7 9 10 11 15 17 16 15
8 7 9 15 18 18 18 17 15 14 12 11 10 10 9 8 7 8 8 8 8 8 7 7 8 8 8 9 9 10 10 10 10 7 7 8 10 11 12 15 18 19 19
7 7 6 9 12 13 15 16 15 14 12 11 10 10 9 9 8 8 9 9 9 10 10 10 11 11 11 11 11 11 12 11 10 9 9 10 12 13 13 14 18 20 20
10 7 6 6 9 10 11 13 14 14 13 11 10 10 10 8 7 8 9 10 12 12 12 13 13 14 14 14 14 14 13 11 10 10 10 12 14 14 15 15 16 19 21
13 13 8 7 7 9 10 9 9 10 11 11 9 8 8 7 8 8 10 13 14 15 15 15 16 16 15 13 14 14 12 12 11 11 12 15 16 16 16 16 16 16 18
13 13 11 9 8 8 7 8 8 8 9 10 9 8 6 6 7 8 9 11 13 14 13 13 13 12 12 12 11 11 12 12 11 11 13 17 18 17 17 17 17 16 16
11 14 11 11 9 8 8 7 8 7 7 7 9 9 7 5 6 7 8 10 10 10 10 10 9 11 11 12 12 12 13 11 11 11 13 18 18 17 17 16 16 16 17
13 13 11 11 11 9 6 5 6 7 7 9 9 10 11 7 6 7 7 9 10 11 9 8 8 8 8 10 11 11 11 13 13 13 13 17 18 18 17 16 15 15 16
13 13 12 12 11 9 8 7 5 8 9 9 10 12 13 12 9 7 7 7 9 11 10 9 8 6 6 7 9 10 11 13 13 14 14 15 18 19 19 17 16 15 15
14 13 13 13 12 11 10 9 7 9 10 9 11 13 14 14 12 9 7 7 8 11 10 7 7 6 6 7 10 11 10 11 12 13 14 14 15 17 18 17 16 15 15
13 13 13 13 13 12 11 9 7 9 10 10 12 13 14 15 14 9 7 8 10 9 6 6 6 5 6 7 8 8 9 8 11 12 13 14 14 13 15 16 17 16 16
13 13 14 13 14 14 12 10 8 8 8 9 10 9 11 12 12 9 6 7 8 5 5 6 6 5 6 7 8 8 8 9 10 10 11 12 13 14 13 15 17 17 17
10 10 11 11 11 11 10 8 6 6 5 5 6 7 8 8 7 6 4 5 4 4 6 5 7 6 6 7 8 9 9 10 10 11 12 10 11 13 14 14 13 14 17
6 7 8 10 9 9 7 7 6 6 5 4 4 6 6 5 3 2 1 2 3 4 6 7 6 8 6 5 5 7 8 10 11 12 11 10 11 11 12 12 12 12 12
4 5 6 8 8 8 7 6 4 4 3 2 3 3 4 4 4 2 2 2 3 4 7 7 7 6 5 5 5 5 6 5 6 9 9 10 10 8 9 10 11 11 11
2 3 4 5 6 7 7 4 3 3 2 2 2 1 1 3 3 2 2 2 4 4 6 8 8 9 8 6 7 7 6 5 4 4 4 5 6 6 7 7 8 10 11
0 2 3 3 3 3 5 6 7 5 4 3 2 1 0 1 1 1 2 2 3 4 6 7 8 8 10 8 5 7 9 6 5 5 4 3 3 4 5 5 5 7 9
2 2 5 6 4 3 2 3 4 3 2 3 2 2 1 1 1 1 2 2 3 3 4 5 6 6 6 7 6 4 6 7 8 7 7 5 3 3 3 4 4 5 7
3 1 2 6 6 7 6 4 5 6 6 5 4 3 2 1 0 2 2 2 3 3 4 5 5 6 5 6 6 5 4 4 4 6 9 7 5 3 3 4 4 5 5
Wind_Direction
164 157 158 153 147 141 135 132 129 126 123 122 122 125 127 129 131 132 132 131 128 123 115 107 106 107 110 113 116 117 118 119 122 120 115 112 114 116 116 113 110 110 109
153 157 160 155 152 148 143 140 137 134 130 126 125 127 129 131 132 132 132 132 131 131 129 125 122 121 123 125 128 129 129 129 133 133 125 120 124 129 129 125 123 124 121
149 158 160 158 156 154 151 148 145 142 139 135 132 131 132 135 139 139 137 137 138 141 141 140 141 141 140 142 145 145 145 146 149 152 135 108 125 162 169 149 147 142 137
149 156 159 160 160 159 157 155 152 148 146 142 140 138 138 140 144 147 148 148 150 151 151 151 154 159 164 165 165 165 165 168 173 174 158 181 214 214 202 183 172 167 161
145 155 163 162 163 163 163 162 159 156 154 152 147 145 146 147 148 152 156 159 162 168 175 180 180 178 182 191 191 190 191 198 210 213 206 222 235 241 218 203 197 192 183
146 155 168 165 166 167 168 169 168 166 165 163 158 156 158 160 161 163 168 175 185 196 207 211 213 212 209 213 218 223 225 227 233 244 252 250 247 249 236 222 217 212 203
149 157 173 169 171 172 173 175 176 175 175 174 172 172 173 176 180 184 187 197 209 215 223 234 237 239 241 238 238 242 247 250 248 248 264 270 273 268 247 227 223 223 218
156 161 176 174 176 178 179 180 181 183 183 184 185 186 188 195 203 204 207 214 221 225 227 234 242 248 251 250 248 250 253 256 259 249 252 264 281 284 258 231 224 225 224
153 159 174 178 181 184 185 187 188 189 189 189 191 194 199 208 220 228 228 230 232 233 236 242 249 255 262 261 257 256 258 261 260 252 255 257 269 280 272 245 230 228 227
159 167 173 173 176 183 190 194 195 196 198 199 200 204 207 214 226 236 238 242 247 246 245 249 255 258 259 261 262 263 264 266 264 260 258 258 263 267 272 264 246 238 235
179 180 176 170 169 173 183 197 198 200 203 206 209 212 213 217 229 241 247 250 253 255 257 259 262 263 261 260 260 262 265 261 258 261 260 260 261 262 265 270 267 252 243
190 191 184 176 166 166 178 184 187 192 196 202 208 217 214 213 225 242 254 260 262 262 264 265 264 265 266 262 261 263 261 259 260 260 260 261 261 260 261 266 272 262 249
190 193 190 182 170 170 172 167 175 185 191 200 207 211 213 222 235 247 257 266 271 272 270 267 269 268 262 259 259 258 258 260 260 259 260 264 267 266 263 263 267 261 253
185 195 189 184 178 179 176 178 183 187 192 200 207 210 212 226 239 245 251 260 266 264 260 259 257 260 262 263 261 262 262 258 257 258 261 265 268 267 266 267 267 260 254
191 194 188 185 186 184 181 184 189 196 201 206 210 216 218 225 238 244 250 257 262 262 256 255 254 254 259 267 266 261 262 260 259 258 261 266 267 266 265 264 264 262 258
196 196 188 189 191 185 188 191 197 205 209 211 220 226 226 229 235 235 244 250 258 258 254 250 250 252 259 263 268 265 263 263 262 260 260 263 264 262 261 261 262 262 261
198 195 191 193 191 190 193 196 200 208 210 216 227 232 232 231 234 234 240 249 252 254 254 251 252 252 259 262 266 268 266 262 261 262 261 259 260 259 256 257 258 258 258
195 194 196 197 192 195 197 197 201 209 212 220 227 231 232 231 231 229 235 245 247 244 241 243 247 252 256 258 264 270 271 270 267 265 264 258 253 250 250 252 254 254 254
199 197 197 197 193 196 198 199 201 204 207 212 214 219 226 230 228 221 229 243 250 244 243 246 248 242 258 263 265 269 271 272 273 271 264 258 248 242 243 247 250 251 252
207 205 204 202 199 194 193 195 197 197 200 200 201 208 213 214 215 208 220 244 253 258 262 259 262 258 256 265 274 274 272 271 273 271 267 262 252 242 237 239 246 251 249
218 212 207 202 202 191 186 187 187 192 192 197 193 185 177 165 147 144 218 295 291 276 278 280 279 275 264 253 269 277 269 262 262 265 261 256 252 241 231 231 236 240 245
234 220 215 210 204 199 197 188 178 167 165 166 151 142 134 109 80 59 9 321 306 294 289 280 269 268 259 228 240 270 286 289 263 256 256 252 250 239 233 229 230 233 237
233 217 205 206 207 206 195 172 145 126 116 134 148 138 73 72 65 42 353 323 308 294 290 286 276 269 272 258 231 243 262 265 298 297 280 272 260 242 237 231 232 234 237
71 130 139 147 182 208 195 183 176 179 184 188 172 175 74 38 27 12 350 337 320 308 298 295 287 276 276 277 261 237 243 257 263 294 301 297 287 258 248 239 242 243 240
360 115 134 137 150 146 190 193 173 159 159 142 144 166 192 267 298 5 14 7 354 339 329 322 313 298 283 280 273 256 252 251 242 250 276 291 301 282 262 259 260 258 247
342 342 150 158 165 160 161 175 178 170 161 159 171 183 202 227 293 21 20 8 352 346 341 333 320 311 299 286 276 254 244 246 241 240 249 262 276 290 290 275 264 264 259
Height
1523 1526 1528 1531 1534 1536 1539 1541 1542 1544 1545 1546 1547 1548 1550 1551 1552 1554 1555 1556 1557 1558 1558 1559 1559 1560 1560 1561 1561 1562 1562 1563 1563 1564 1564 1564 1564 1563 1563 1563 1563 1563 1563
1522 1526 1529 1532 1534 1537 1539 1542 1544 1545 1546 1547 1548 1550 1551 1552 1553 1554 1555 1557 1558 1559 1559 1560 1561 1561 1561 1562 1562 1563 1563 1564 1564 1565 1565 1565 1566 1565 1565 1565 1565 1565 1565
1523 1526 1529 1533 1536 1538 1540 1542 1545 1546 1547 1549 1550 1551 1552 1553 1554 1555 1557 1557 1559 1560 1560 1561 1561 1562 1563 1563 1563 1564 1564 1564 1565 1565 1566 1566 1566 1567 1567 1567 1567 1567 1567
1523 1526 1529 1533 1537 1539 1541 1543 1545 1547 1549 1550 1552 1553 1554 1555 1555 1556 1558 1559 1560 1560 1561 1562 1562 1563 1563 1564 1564 1564 1564 1565 1565 1565 1566 1566 1566 1567 1567 1567 1568 1568 1568
1523 1526 1530 1533 1537 1540 1542 1544 1547 1549 1550 1552 1553 1554 1555 1556 1557 1558 1559 1560 1561 1562 1562 1563 1563 1563 1563 1564 1564 1564 1565 1565 1565 1565 1565 1566 1566 1566 1566 1567 1567 1568 1568
1523 1526 1530 1534 1537 1540 1542 1545 1547 1549 1551 1553 1554 1555 1556 1557 1558 1559 1560 1561 1562 1562 1563 1563 1563 1563 1563 1563 1564 1564 1564 1564 1564 1565 1565 1565 1565 1565 1566 1566 1566 1567 1567
1523 1527 1530 1534 1537 1540 1543 1545 1547 1550 1552 1553 1555 1555 1556 1557 1559 1559 1560 1561 1561 1562 1563 1563 1563 1563 1563 1563 1563 1563 1563 1563 1563 1563 1563 1564 1564 1564 1565 1565 1565 1565 1566
1524 1527 1531 1534 1537 1540 1543 1545 1547 1549 1551 1553 1554 1556 1557 1558 1559 1560 1560 1561 1561 1562 1562 1563 1563 1563 1563 1562 1562 1562 1561 1561 1561 1561 1561 1562 1562 1563 1563 1563 1563 1563 1563
1525 1528 1531 1533 1537 1540 1543 1545 1547 1549 1550 1552 1554 1555 1557 1557 1558 1559 1560 1561 1561 1561 1562 1562 1562 1562 1561 1561 1561 1560 1560 1559 1559 1559 1559 1559 1559 1560 1561 1561 1561 1561 1561
1525 1528 1530 1533 1536 1539 1542 1544 1546 1548 1550 1552 1553 1554 1556 1557 1557 1558 1559 1560 1560 1560 1560 1560 1560 1559 1559 1559 1559 1558 1557 1557 1556 1556 1556 1556 1557 1557 1558 1558 1558 1558 1558
1523 1526 1529 1532 1535 1538 1541 1543 1545 1547 1549 1551 1552 1554 1555 1556 1557 1557 1558 1558 1558 1558 1558 1558 1558 1557 1557 1556 1556 1556 1555 1554 1554 1554 1554 1553 1553 1554 1554 1555 1555 1556 1556
1521 1524 1527 1531 1534 1536 1539 1541 1543 1546 1548 1550 1551 1552 1553 1554 1555 1556 1556 1557 1557 1557 1557 1557 1556 1556 1555 1554 1554 1553 1552 1552 1551 1551 1551 1551 1550 1550 1550 1551 1552 1552 1552
1520 1523 1526 1529 1532 1534 1537 1539 1542 1544 1546 1548 1549 1550 1551 1552 1553 1553 1554 1555 1555 1555 1555 1555 1554 1554 1553 1552 1551 1551 1550 1549 1549 1548 1548 1548 1547 1546 1546 1547 1547 1548 1548
1518 1521 1524 1527 1530 1533 1535 1537 1540 1542 1544 1546 1547 1548 1549 1550 1551 1551 1552 1553 1553 1553 1553 1553 1552 1552 1551 1550 1549 1549 1548 1547 1547 1546 1545 1545 1544 1543 1543 1543 1543 1544 1544
1517 1519 1522 1525 1528 1531 1533 1536 1538 1540 1542 1544 1545 1546 1547 1548 1549 1549 1549 1550 1550 1550 1550 1550 1550 1549 1548 1547 1547 1546 1546 1545 1544 1543 1542 1542 1541 1540 1539 1539 1540 1540 1540
1515 1518 1520 1523 1526 1529 1532 1534 1536 1538 1540 1541 1542 1543 1544 1545 1546 1547 1547 1547 1547 1547 1547 1547 1546 1546 1545 1544 1543 1543 1542 1541 1540 1539 1538 1538 1537 1537 1536 1535 1536 1536 1536
1514 1517 1519 1521 1524 1526 1529 1531 1534 1536 1537 1538 1540 1541 1542 1542 1543 1544 1544 1544 1544 1544 1544 1543 1543 1542 1541 1540 1540 1539 1538 1537 1536 1535 1534 1533 1533 1533 1532 1531 1531 1532 1532
1512 1514 1517 1519 1521 1523 1525 1528 1531 1533 1534 1535 1537 1538 1538 1539 1540 1540 1541 1541 1541 1541 1540 1540 1539 1538 1537 1536 1535 1535 1534 1532 1531 1530 1530 1529 1529 1529 1529 1528 1528 1528 1528
1510 1513 1515 1516 1518 1520 1522 1525 1527 1529 1531 1532 1533 1534 1535 1535 1536 1536 1537 1537 1537 1537 1536 1536 1535 1534 1533 1532 1531 1530 1529 1528 1527 1526 1525 1524 1524 1524 1524 1524 1524 1524 1524
1511 1513 1515 1516 1517 1519 1520 1522 1523 1525 1527 1528 1529 1530 1530 1531 1532 1532 1533 1533 1533 1533 1532 1531 1530 1529 1527 1527 1525 1523 1523 1522 1521 1520 1519 1519 1519 1519 1519 1520 1520 1519 1520
1511 1513 1514 1515 1516 1517 1517 1517 1519 1520 1522 1524 1524 1525 1526 1527 1528 1528 1529 1529 1529 1528 1526 1526 1524 1522 1521 1521 1519 1516 1515 1515 1514 1513 1512 1512 1512 1513 1513 1514 1515 1515 1515
1509 1510 1512 1513 1514 1515 1515 1515 1516 1517 1518 1519 1520 1521 1522 1523 1524 1524 1524 1524 1524 1522 1520 1519 1518 1516 1514 1515 1514 1511 1508 1507 1506 1506 1505 1505 1506 1507 1507 1508 1509 1510 1510
1505 1507 1508 1510 1511 1512 1513 1513 1513 1513 1514 1514 1516 1516 1518 1518 1519 1519 1519 1519 1518 1516 1514 1513 1512 1509 1507 1507 1508 1508 1505 1501 1500 1500 1500 1500 1500 1500 1501 1502 1503 1504 1505
1500 1501 1503 1504 1506 1507 1508 1508 1507 1507 1508 1509 1511 1512 1513 1513 1514 1514 1514 1513 1513 1511 1509 1507 1506 1504 1502 1500 1500 1501 1501 1499 1499 1496 1496 1497 1496 1496 1496 1497 1497 1498 1499
1496 1497 1497 1498 1499 1500 1501 1501 1501 1502 1503 1505 1507 1508 1508 1509 1509 1510 1510 1509 1508 1507 1505 1503 1501 1500 1498 1496 1495 1495 1494 1494 1494 1494 1492 1492 1492 1492 1492 1492 1492 1493 1493
1494 1494 1494 1494 1494 1493 1493 1493 1495 1497 1499 1501 1503 1504 1505 1505 1505 1505 1506 1505 1505 1503 1502 1500 1498 1496 1494 1492 1491 1490 1490 1489 1489 1489 1489 1488 1488 1488 1488 1488 1488 1488 1489